Temperature
16 16 17 17 17 18 19 21 22 21 21 21 21 21 20 19 18 16 14 14 14 14 14 14 14 14 15 15 14 14 15 15 15 15 15 15 15 15 15 15 15 14 14 14 14 14 14 14 15
16 16 16 18 18 18 19 20 21 20 20 20 20 20 20 18 16 15 14 14 13 14 14 14 14 14 14 14 14 14 14 14 14 14 14 14 14 15 15 15 14 14 14 14 14 14 14 15 15
16 16 17 18 18 19 19 20 20 20 19 19 19 19 18 17 15 14 13 13 13 13 13 14 14 14 14 14 14 14 14 14 14 14 14 14 14 14 14 14 14 14 14 14 14 14 14 14 14
15 16 17 17 18 19 20 19 19 19 19 19 18 18 16 15 14 13 13 13 13 13 13 13 13 14 14 14 14 14 14 14 14 14 14 14 14 14 14 14 14 14 14 14 14 14 14 14 14
15 17 17 17 17 19 19 19 19 18 18 18 18 17 15 14 14 13 13 13 13 13 13 13 13 13 13 13 13 13 14 14 14 14 13 13 13 14 14 14 14 14 14 14 14 14 14 14 14
16 17 16 17 18 19 18 18 18 18 18 17 17 16 14 13 13 13 12 12 12 12 12 12 13 13 13 13 13 13 13 13 13 13 13 13 13 13 13 13 14 14 14 14 14 14 14 14 14
15 16 16 17 17 18 18 17 17 17 16 16 16 15 14 13 12 12 12 12 12 12 12 12 12 12 12 13 13 12 13 13 13 13 13 13 13 13 13 13 13 13 13 13 13 13 13 13 13
14 15 16 17 17 17 17 16 16 16 15 15 15 14 13 12 12 12 11 11 11 11 11 11 11 11 12 12 12 12 12 12 12 12 13 13 13 13 13 13 13 13 13 13 13 13 13 13 13
14 14 15 16 16 16 16 15 15 14 14 14 13 13 13 12 12 11 11 11 11 11 11 11 11 11 11 11 11 12 12 12 12 12 12 12 12 12 12 12 12 12 12 13 13 13 13 13 13
14 13 14 15 15 15 15 14 14 14 14 13 13 12 12 11 11 11 11 10 10 10 10 11 11 11 11 11 11 11 11 11 11 12 12 12 12 12 12 12 12 12 12 12 12 12 12 12 12
14 13 14 14 14 14 14 13 13 13 12 13 12 11 11 11 10 10 10 10 10 10 10 10 10 10 10 10 10 11 11 11 11 11 11 11 11 11 11 11 11 12 12 12 12 12 12 12 12
13 13 13 13 12 13 13 13 12 13 12 12 11 11 10 10 10 10 10 10 9 9 9 9 9 10 10 10 10 10 10 10 10 10 10 11 11 11 11 11 11 11 11 11 11 11 11 11 11
12 12 12 12 12 12 12 12 12 11 11 11 11 10 10 10 10 10 9 9 9 9 9 9 9 9 9 10 10 10 10 10 10 10 10 10 10 10 10 10 11 11 11 11 11 11 11 11 11
12 12 12 11 12 12 11 11 11 11 11 11 10 10 10 9 9 9 9 9 8 8 8 9 9 9 9 9 9 9 9 9 9 9 9 9 10 10 10 10 10 10 10 10 10 10 10 10 11
12 11 11 12 12 12 11 10 11 11 10 10 10 10 9 9 9 9 9 8 8 8 8 8 8 8 8 8 8 9 9 9 9 9 9 9 9 9 9 10 10 10 10 10 10 10 10 10 10
12 11 11 12 12 12 10 9 11 11 10 10 10 9 9 9 9 8 8 8 8 8 8 8 8 8 8 8 8 8 8 8 8 9 9 9 9 9 9 9 9 9 9 9 9 9 9 10 10
11 10 11 11 12 12 10 10 11 11 10 10 10 9 9 9 8 8 8 8 8 7 7 8 8 7 8 8 8 8 8 8 8 8 8 8 8 8 9 9 9 9 9 9 9 9 9 9 9
10 11 11 11 11 11 10 10 10 11 10 10 10 9 9 8 8 8 8 7 7 7 7 7 7 7 7 7 7 7 7 7 8 8 8 8 8 8 8 8 8 9 9 9 9 9 9 9 9
11 11 11 11 11 10 10 10 10 10 10 10 9 9 9 8 8 8 7 7 7 7 7 7 7 7 7 7 7 7 7 7 7 7 7 7 7 7 7 8 8 8 8 8 8 8 8 8 8
11 10 10 10 10 10 9 9 10 10 10 10 9 9 8 8 8 7 7 7 6 6 6 6 6 6 6 6 6 6 6 6 6 6 7 7 7 7 7 7 7 7 8 8 8 7 7 7 7
10 10 10 9 10 10 9 9 10 10 10 10 9 9 8 8 7 7 6 6 6 6 6 6 6 6 6 6 6 6 6 6 6 6 6 6 6 6 6 7 7 7 7 7 7 7 7 7 7
9 10 10 9 8 8 9 7 9 9 9 9 9 8 8 8 7 7 6 6 6 6 6 6 6 5 5 6 6 6 5 5 5 5 6 6 6 6 6 6 6 6 6 6 6 6 6 6 6
9 9 9 9 8 8 8 8 8 9 8 8 8 8 8 7 7 6 6 6 6 5 5 5 5 5 5 5 5 5 5 5 5 5 5 5 5 5 5 6 6 6 6 6 6 6 6 6 6
9 9 9 9 8 7 8 8 8 8 8 8 8 8 7 7 7 6 6 5 5 5 5 5 5 5 5 5 5 5 5 5 5 5 5 5 5 5 5 5 5 5 5 6 6 6 6 6 5
8 7 7 7 7 7 9 9 8 9 9 8 8 7 7 6 6 6 5 5 5 5 5 5 5 4 4 4 4 4 4 4 4 4 4 5 5 5 5 5 5 5 5 5 5 5 5 5 5
7 8 7 6 7 8 8 8 8 9 9 8 8 7 6 6 5 5 5 5 4 4 4 4 4 4 4 4 4 4 4 4 4 4 4 4 4 4 5 5 5 5 5 5 5 5 5 5 5
7 7 8 7 6 6 8 8 8 8 8 7 7 6 6 6 5 5 4 4 4 4 4 4 4 4 4 4 4 4 4 4 4 4 4 4 4 4 4 4 4 4 4 5 5 5 5 4 4
7 7 6 6 6 7 8 8 7 6 6 6 6 6 6 5 5 5 4 4 4 4 4 3 3 3 3 3 3 3 4 4 3 3 3 4 4 4 4 4 4 4 4 4 4 4 4 4 4
6 6 6 6 6 6 7 7 8 7 6 6 6 6 6 5 5 4 4 4 4 3 3 3 3 3 3 3 3 3 3 3 3 3 3 3 4 4 4 4 4 4 4 4 4 4 4 4 4
7 6 6 5 5 6 6 6 8 7 6 6 6 6 5 5 4 4 4 3 3 3 3 3 3 3 3 3 3 3 3 3 3 3 3 3 3 3 3 3 3 3 3 3 3 3 3 3 3
Wind_Speed
14 13 7 3 3 4 6 4 1 1 1 4 6 4 4 6 5 6 4 5 6 6 8 8 7 6 7 6 6 6 6 6 6 5 5 5 6 6 6 6 6 6 6 5 5 6 6 6 6
12 8 4 4 4 5 5 3 2 1 2 3 4 4 3 5 7 6 4 4 5 7 8 7 7 6 6 7 7 6 5 5 6 6 5 5 5 5 6 6 6 6 6 5 5 5 6 6 5
10 7 3 3 4 5 3 1 3 2 3 3 2 3 3 4 6 4 4 4 5 7 8 7 6 6 5 6 7 7 6 5 6 5 5 4 4 5 5 6 6 6 6 5 5 5 4 5 4
4 3 3 4 7 4 2 2 2 2 2 2 2 2 3 6 4 4 4 4 6 7 8 7 6 5 5 5 6 6 6 5 5 5 4 4 3 4 4 5 6 5 5 5 5 4 4 4 3
3 3 4 5 8 4 1 2 2 1 0 1 1 0 3 5 7 6 5 4 5 6 7 6 5 4 4 4 5 5 5 5 4 5 4 3 3 3 4 4 5 5 5 4 5 4 3 3 2
3 3 4 7 7 3 1 1 1 2 1 2 2 2 2 4 6 5 4 4 5 6 6 5 4 4 3 3 4 4 4 4 4 3 4 3 3 3 3 4 4 4 4 4 4 5 4 2 2
3 3 5 6 5 3 0 2 1 1 2 2 3 2 1 4 5 4 3 3 4 6 6 5 4 3 3 2 3 3 4 4 4 3 3 2 1 2 2 3 3 3 4 4 4 3 4 2 2
4 3 5 5 5 2 2 2 3 4 2 3 4 2 1 3 4 3 3 3 3 3 4 5 5 4 3 2 2 3 3 4 3 4 3 2 1 1 2 2 2 3 3 3 3 3 3 2 2
3 3 4 3 2 1 3 2 2 2 2 2 2 2 2 2 3 2 2 2 2 3 3 4 5 4 4 3 1 2 2 3 3 3 3 2 1 1 2 2 2 1 2 2 2 2 2 2 3
2 3 3 3 4 3 2 2 2 2 3 2 1 3 2 2 1 1 1 1 2 2 2 2 3 3 3 4 2 1 1 2 2 2 3 3 2 2 2 2 1 1 2 2 2 2 2 2 1
2 3 2 3 5 3 2 3 2 4 5 2 2 1 1 0 0 1 2 2 1 1 2 2 2 3 2 2 3 2 2 1 2 2 3 3 3 2 2 2 1 2 2 2 2 2 3 2 1
2 3 3 2 4 3 3 3 4 5 4 2 1 0 2 2 2 2 2 2 2 1 2 2 2 3 2 2 2 2 2 2 2 2 3 3 2 2 1 1 1 1 2 1 2 2 3 3 2
4 2 2 2 3 4 4 5 5 5 4 2 1 2 3 3 2 2 1 1 2 1 1 2 1 2 2 2 2 2 2 2 2 2 2 2 2 1 1 1 1 1 2 2 2 2 2 2 2
1 1 3 5 5 4 4 5 5 5 3 3 3 4 3 2 2 2 1 2 2 1 1 1 0 2 1 1 1 1 2 3 3 2 2 2 2 2 1 1 1 1 2 2 2 2 2 2 2
3 3 4 5 5 3 3 6 6 4 4 4 4 4 3 2 2 2 2 2 2 2 1 1 1 1 0 0 1 2 2 2 2 2 2 2 3 3 2 1 1 2 2 3 2 2 2 2 1
5 4 4 3 4 3 3 7 4 3 3 5 5 4 3 3 2 2 2 2 2 1 1 1 1 1 0 0 0 1 2 2 2 3 3 2 2 2 2 1 1 2 2 2 1 1 1 2 2
4 4 5 3 4 4 5 7 4 3 4 5 4 3 3 2 2 2 1 1 1 1 1 1 1 1 1 0 1 1 1 1 1 2 3 3 3 3 2 1 1 2 1 1 2 2 1 2 2
4 5 5 5 3 5 7 8 6 5 5 5 4 3 3 3 3 2 1 0 1 1 0 1 1 1 1 1 0 1 0 0 1 1 2 3 2 3 3 2 2 2 1 1 1 2 2 1 2
6 7 8 6 3 5 9 10 9 7 6 5 4 3 3 3 2 1 1 0 1 2 1 0 1 1 1 1 0 0 1 1 1 0 1 3 2 2 1 2 2 2 1 1 2 2 2 2 1
7 8 8 6 3 6 9 12 10 8 6 4 4 3 3 2 1 1 0 0 1 1 1 1 1 1 1 1 1 1 1 1 1 1 0 2 2 1 1 1 1 2 1 1 1 1 2 2 1
8 7 6 7 7 7 7 8 6 5 6 5 4 3 3 3 2 2 1 1 1 1 2 2 1 1 1 1 1 0 0 1 1 1 1 1 2 2 1 1 1 2 1 1 2 1 2 2 2
7 4 5 7 5 4 3 5 4 4 6 5 3 2 3 2 2 1 1 1 2 2 1 1 1 1 1 1 1 2 2 2 3 2 1 1 1 2 1 1 1 1 1 1 2 2 2 2 2
4 5 7 8 6 6 6 5 5 3 4 4 3 2 2 1 1 1 2 2 1 1 0 0 1 1 2 2 2 2 2 2 2 2 2 2 1 2 2 1 1 1 1 2 1 2 2 2 2
4 5 6 5 3 5 6 5 4 3 4 3 2 1 1 0 1 1 2 2 1 0 0 0 1 1 2 2 3 3 3 3 3 3 2 2 2 2 2 2 1 2 2 2 2 2 2 2 2
2 1 1 1 3 5 2 3 5 2 1 2 2 1 1 1 1 2 3 3 2 0 0 1 1 1 2 2 2 3 3 4 4 4 3 3 2 2 2 2 2 2 2 3 2 3 3 3 3
4 2 1 3 3 3 2 5 3 1 2 3 2 1 1 1 1 2 3 3 2 1 1 1 1 2 2 2 3 2 3 3 3 3 3 3 3 3 3 3 2 3 3 3 3 3 3 3 3
2 3 2 2 4 4 5 3 1 3 3 2 2 1 1 1 1 2 3 3 2 2 2 1 2 2 3 3 3 3 3 3 3 3 3 3 3 3 3 3 3 3 3 3 3 2 3 3 3
2 1 1 2 3 4 5 4 2 2 2 1 1 0 1 2 2 2 2 3 2 2 2 2 2 2 3 3 3 3 3 3 3 3 3 3 3 3 3 3 3 3 3 3 2 2 3 3 3
4 3 3 3 4 3 4 3 2 1 0 1 1 0 1 1 1 2 2 2 2 2 2 2 2 2 2 3 3 3 3 3 3 3 4 3 3 3 3 4 4 4 4 3 3 3 3 3 3
3 4 4 3 4 3 3 4 2 2 1 1 2 2 2 2 2 2 2 2 2 2 2 2 2 3 3 3 3 3 2 2 3 4 3 3 3 3 3 3 3 4 4 3 4 4 4 3 3
Wind_Direction
303 283 263 255 242 229 236 231 228 31 9 18 11 5 7 17 26 93 110 66 73 89 95 87 63 61 55 49 49 51 55 55 51 58 60 59 61 59 58 56 55 55 57 62 65 70 74 77 76
298 286 263 237 240 231 231 219 190 17 42 34 15 4 17 61 64 88 74 54 66 78 87 83 65 59 59 55 49 48 54 55 52 54 58 60 63 60 60 59 58 56 54 55 62 68 69 72 77
284 272 254 232 231 238 222 68 76 75 62 34 25 25 11 51 62 72 69 58 63 69 83 86 71 59 62 61 55 47 49 54 52 48 51 63 64 66 63 59 58 58 53 52 56 61 66 67 73
281 243 241 240 239 245 259 63 45 77 80 40 27 62 79 53 47 71 72 52 59 66 73 85 76 60 64 63 59 50 46 46 47 43 47 56 64 62 63 64 62 60 55 51 47 52 61 63 58
251 244 226 230 242 246 317 28 18 339 119 67 57 311 87 62 69 74 69 54 56 57 63 81 76 59 64 68 60 51 45 40 39 43 47 56 61 65 66 64 62 57 51 47 41 39 47 52 38
255 243 231 227 230 221 169 43 307 360 8 24 354 302 89 87 71 59 55 51 53 50 58 69 86 67 57 68 62 52 43 37 36 38 41 51 56 60 64 60 63 57 45 42 37 33 28 36 13
279 256 246 246 240 230 145 33 360 345 344 354 344 324 103 75 61 57 45 39 44 46 48 46 67 80 56 56 57 51 41 35 27 32 36 32 51 65 62 58 58 53 42 34 31 24 14 360 337
305 282 251 249 245 244 62 22 7 357 341 4 0 331 71 55 56 56 43 32 41 46 48 34 28 40 32 39 54 48 41 39 33 30 22 20 26 58 60 57 63 46 34 27 20 17 358 336 298
290 259 252 271 278 347 51 354 5 7 342 336 337 348 30 51 44 46 40 18 14 26 39 34 18 27 20 360 31 51 44 52 41 30 15 358 357 23 60 67 61 24 9 3 1 355 343 334 283
261 243 264 337 341 14 27 347 339 303 273 278 329 33 71 76 67 341 323 335 351 360 6 35 14 6 18 358 10 25 26 48 31 18 15 0 346 354 41 56 58 11 2 351 338 326 312 318 301
272 255 287 337 353 8 343 314 303 275 275 285 322 45 62 154 299 288 293 305 321 331 349 21 24 2 13 1 11 9 3 6 22 13 360 3 1 11 35 35 33 18 3 347 327 316 295 301 333
262 290 288 309 335 333 308 293 285 270 287 330 11 70 265 256 254 253 271 302 314 335 344 11 29 6 360 8 5 10 356 1 16 355 6 10 9 3 6 20 357 332 331 323 302 297 303 317 318
236 250 286 303 293 290 291 275 281 273 285 311 267 230 235 257 274 273 268 292 291 315 332 9 13 352 353 8 352 18 7 357 360 7 12 10 19 332 342 355 333 317 319 317 303 293 301 316 320
250 255 257 253 253 260 266 269 260 255 261 248 227 234 221 243 263 273 274 276 269 257 287 342 358 344 338 20 356 20 12 5 9 18 4 6 9 357 324 325 331 332 324 315 305 299 303 306 322
227 244 249 237 233 233 281 270 238 232 246 253 242 233 214 228 258 269 262 255 250 239 246 289 267 324 285 85 10 17 13 17 12 359 0 10 10 351 338 307 300 327 334 324 321 308 311 298 306
225 234 246 226 218 208 240 264 244 203 232 251 242 237 222 216 243 264 262 262 276 259 234 248 285 305 171 91 30 35 18 20 12 358 356 358 357 341 349 307 289 321 337 329 304 289 286 287 288
218 248 252 246 210 221 229 259 254 227 234 253 242 234 230 219 235 253 251 263 292 277 229 206 203 193 153 91 25 54 36 34 6 2 359 341 342 335 3 338 313 330 334 303 292 303 277 280 299
248 263 267 259 231 257 255 259 257 240 238 243 241 234 233 229 237 242 230 243 316 321 310 153 136 169 132 123 61 61 38 346 20 26 359 332 332 340 355 348 318 327 297 292 290 292 302 283 281
282 276 279 287 310 292 266 266 257 240 229 231 236 240 247 238 233 195 184 92 15 351 350 152 198 203 129 167 227 331 301 291 301 28 12 330 319 330 342 327 323 324 279 269 273 279 298 300 317
274 271 279 294 300 288 271 269 256 234 220 216 226 239 250 246 225 208 164 53 318 280 276 263 244 244 226 208 224 215 247 279 273 296 295 317 313 317 296 310 322 321 302 293 288 295 293 295 335
269 263 283 292 305 267 275 281 242 203 206 214 225 231 242 240 243 251 237 289 270 251 243 259 249 260 245 211 192 113 304 290 287 270 253 275 299 295 287 292 306 302 291 282 284 261 277 273 283
266 284 287 285 286 273 249 286 256 199 202 216 233 243 252 255 258 268 280 272 258 242 237 216 225 252 252 220 197 203 239 256 262 260 252 255 291 296 303 288 287 284 291 272 279 284 274 253 262
275 303 282 266 262 277 245 249 275 181 213 227 229 239 246 235 241 279 298 294 293 227 193 203 235 252 265 238 219 226 241 253 264 265 263 271 268 263 275 270 263 266 265 253 261 290 281 265 255
294 286 272 245 244 261 231 220 273 209 220 226 203 208 223 356 325 313 349 334 299 212 155 224 254 259 255 249 238 229 232 244 254 262 255 260 253 244 234 255 260 261 259 251 243 255 256 263 262
278 281 332 306 240 250 231 223 254 247 199 168 158 135 79 61 24 8 353 321 320 311 201 240 256 276 271 262 257 246 238 239 240 245 245 252 256 253 229 239 256 259 252 243 239 233 238 242 248
244 250 202 248 264 288 277 235 246 74 85 81 90 97 53 18 7 3 346 339 349 319 283 272 275 281 278 278 270 256 251 246 243 243 245 248 247 248 232 221 238 252 252 248 236 232 240 237 238
241 239 279 283 285 275 249 236 276 37 58 57 65 50 324 326 359 358 344 333 336 331 330 310 288 284 277 278 279 269 261 257 254 252 257 256 245 244 230 220 226 243 251 247 242 233 236 238 238
266 280 246 230 269 275 267 243 252 315 324 7 52 285 306 326 358 350 337 332 340 343 344 337 301 285 285 285 279 276 265 263 255 252 254 260 252 236 226 226 226 235 244 236 229 245 240 233 240
190 222 235 247 253 256 282 278 8 144 141 325 298 309 323 338 343 333 326 324 335 347 345 335 322 306 299 293 292 288 267 260 258 252 253 259 258 237 222 223 225 230 234 228 223 231 236 237 246
223 213 203 228 262 244 263 274 344 54 76 38 357 358 1 349 336 325 323 331 331 336 335 328 329 322 312 310 308 294 265 246 253 259 263 261 256 244 226 224 228 230 235 233 227 230 230 232 239
Height
1501 1502 1504 1507 1508 1508 1506 1497 1492 1495 1496 1499 1500 1500 1501 1505 1508 1518 1518 1515 1515 1515 1514 1514 1514 1514 1514 1514 1515 1515 1515 1515 1516 1516 1516 1517 1517 1518 1518 1518 1519 1519 1519 1520 1520 1520 1521 1521 1521
1500 1502 1505 1506 1507 1509 1504 1495 1495 1497 1499 1500 1501 1502 1503 1507 1511 1514 1514 1515 1515 1514 1514 1514 1514 1514 1514 1514 1514 1514 1514 1515 1515 1515 1516 1516 1517 1517 1518 1518 1518 1518 1519 1519 1519 1520 1520 1520 1521
1500 1502 1505 1503 1504 1504 1500 1494 1495 1497 1499 1501 1503 1504 1507 1510 1513 1514 1514 1514 1514 1514 1514 1513 1513 1513 1513 1513 1513 1513 1514 1514 1514 1514 1515 1515 1516 1516 1517 1517 1517 1518 1518 1518 1519 1519 1519 1520 1520
1502 1504 1504 1504 1503 1496 1495 1496 1496 1498 1500 1502 1504 1506 1509 1512 1513 1514 1514 1514 1514 1513 1513 1513 1513 1513 1513 1513 1513 1513 1513 1513 1513 1514 1514 1514 1514 1515 1516 1516 1516 1517 1517 1517 1518 1518 1518 1519 1519
1502 1502 1503 1504 1500 1495 1495 1496 1498 1499 1501 1503 1505 1507 1510 1512 1512 1513 1513 1513 1513 1513 1512 1512 1512 1512 1512 1512 1512 1512 1512 1512 1512 1512 1513 1513 1513 1514 1514 1515 1515 1515 1516 1516 1516 1517 1517 1518 1518
1503 1500 1503 1503 1498 1495 1495 1498 1499 1501 1502 1504 1506 1507 1511 1512 1512 1512 1512 1513 1513 1512 1512 1511 1511 1511 1511 1511 1511 1511 1511 1511 1511 1511 1511 1512 1512 1512 1513 1513 1514 1514 1514 1515 1515 1515 1516 1516 1517
1503 1500 1500 1497 1497 1496 1497 1499 1500 1502 1504 1506 1507 1508 1510 1511 1511 1511 1511 1512 1512 1511 1511 1511 1510 1510 1510 1510 1510 1510 1510 1510 1510 1510 1510 1510 1510 1510 1511 1511 1512 1513 1513 1513 1513 1514 1514 1515 1515
1501 1501 1497 1496 1496 1497 1498 1501 1502 1504 1505 1507 1507 1508 1510 1511 1510 1511 1511 1511 1511 1510 1510 1509 1509 1509 1509 1508 1509 1509 1509 1508 1509 1509 1509 1509 1508 1508 1508 1509 1510 1511 1511 1511 1512 1512 1513 1513 1514
1501 1504 1500 1497 1497 1498 1500 1502 1504 1505 1506 1506 1507 1508 1508 1509 1509 1509 1509 1510 1510 1509 1509 1508 1508 1508 1507 1507 1507 1507 1507 1507 1507 1507 1507 1507 1507 1507 1507 1507 1508 1509 1509 1510 1510 1511 1511 1511 1512
1502 1504 1501 1499 1498 1499 1501 1503 1505 1505 1505 1506 1506 1507 1507 1507 1508 1508 1508 1508 1508 1508 1507 1507 1506 1506 1506 1506 1506 1505 1505 1505 1505 1505 1505 1505 1505 1506 1506 1506 1507 1507 1508 1508 1508 1509 1509 1509 1509
1502 1502 1501 1501 1501 1501 1503 1504 1505 1505 1505 1505 1506 1506 1506 1506 1507 1507 1508 1508 1507 1506 1506 1505 1504 1504 1504 1504 1503 1503 1504 1504 1504 1503 1503 1503 1503 1504 1504 1504 1505 1505 1506 1506 1506 1507 1507 1507 1507
1503 1502 1502 1503 1503 1503 1504 1504 1505 1504 1504 1504 1504 1505 1505 1505 1506 1506 1506 1506 1505 1505 1504 1503 1502 1501 1502 1501 1502 1502 1502 1502 1502 1501 1501 1501 1501 1502 1502 1502 1503 1503 1504 1504 1504 1505 1505 1505 1505
1503 1503 1503 1504 1504 1503 1503 1503 1503 1503 1503 1502 1502 1503 1503 1503 1504 1504 1504 1504 1503 1503 1502 1501 1500 1500 1499 1499 1499 1500 1500 1500 1500 1499 1499 1499 1499 1499 1500 1500 1500 1501 1501 1502 1502 1502 1503 1503 1503
1502 1503 1503 1503 1502 1502 1502 1501 1502 1500 1501 1501 1501 1501 1501 1502 1502 1502 1502 1501 1501 1500 1499 1498 1498 1498 1497 1497 1497 1497 1498 1498 1498 1497 1498 1498 1497 1497 1497 1498 1498 1499 1499 1499 1500 1500 1500 1501 1500
1502 1503 1502 1500 1500 1500 1501 1500 1498 1498 1499 1499 1499 1499 1499 1499 1499 1499 1499 1498 1498 1497 1497 1496 1495 1495 1495 1494 1494 1495 1495 1496 1495 1495 1495 1495 1495 1495 1495 1495 1496 1496 1496 1497 1497 1498 1498 1498 1498
1501 1502 1502 1498 1497 1498 1503 1500 1495 1495 1496 1496 1496 1496 1496 1497 1497 1497 1497 1496 1495 1495 1494 1494 1493 1492 1492 1491 1491 1491 1493 1493 1493 1493 1493 1493 1493 1493 1493 1493 1493 1493 1494 1494 1495 1495 1495 1495 1495
1501 1503 1499 1498 1496 1496 1498 1497 1493 1493 1494 1494 1494 1494 1494 1494 1494 1494 1494 1493 1492 1492 1492 1491 1491 1490 1489 1489 1489 1489 1490 1490 1490 1490 1490 1491 1491 1491 1490 1490 1490 1491 1491 1491 1492 1492 1492 1492 1492
1503 1500 1496 1496 1494 1494 1495 1493 1491 1491 1491 1491 1491 1491 1491 1491 1492 1492 1491 1490 1490 1488 1488 1488 1488 1487 1486 1486 1486 1486 1487 1487 1488 1488 1488 1488 1488 1487 1487 1487 1487 1487 1488 1489 1489 1489 1490 1489 1489
1498 1498 1497 1494 1492 1494 1492 1490 1487 1487 1487 1487 1488 1489 1489 1489 1489 1489 1489 1488 1487 1486 1485 1484 1484 1484 1484 1484 1484 1483 1484 1484 1485 1485 1485 1485 1485 1485 1484 1485 1485 1484 1485 1485 1486 1487 1487 1487 1487
1497 1497 1496 1493 1493 1493 1490 1486 1482 1482 1483 1484 1485 1486 1486 1486 1486 1486 1486 1485 1484 1484 1483 1482 1482 1482 1482 1482 1482 1482 1482 1482 1482 1482 1482 1483 1482 1482 1482 1482 1482 1482 1482 1483 1483 1484 1484 1484 1484
1497 1496 1496 1496 1493 1490 1490 1486 1478 1477 1479 1481 1482 1482 1483 1483 1483 1483 1483 1482 1482 1481 1480 1480 1479 1479 1479 1479 1479 1479 1480 1479 1479 1479 1479 1480 1479 1479 1479 1479 1479 1480 1480 1480 1480 1481 1481 1481 1482
1497 1493 1494 1494 1498 1496 1491 1494 1477 1475 1476 1478 1479 1480 1480 1481 1480 1480 1480 1480 1479 1478 1478 1477 1477 1476 1476 1476 1476 1476 1476 1476 1476 1476 1476 1476 1476 1476 1476 1476 1476 1477 1477 1477 1478 1478 1479 1479 1478
1496 1493 1493 1493 1495 1496 1490 1493 1480 1474 1476 1476 1476 1477 1478 1478 1479 1478 1478 1477 1476 1475 1475 1474 1474 1474 1474 1473 1473 1473 1473 1473 1474 1474 1473 1473 1473 1473 1473 1473 1474 1474 1474 1474 1475 1475 1476 1476 1476
1495 1494 1491 1491 1495 1500 1486 1489 1482 1476 1473 1473 1474 1475 1476 1476 1476 1476 1476 1475 1474 1473 1472 1472 1471 1471 1471 1471 1471 1470 1470 1471 1471 1470 1470 1470 1470 1470 1470 1470 1470 1471 1471 1471 1471 1472 1473 1473 1473
1497 1499 1502 1502 1500 1492 1478 1482 1480 1469 1468 1469 1471 1473 1474 1474 1474 1474 1473 1473 1471 1470 1470 1469 1468 1468 1468 1468 1468 1468 1468 1468 1467 1467 1467 1466 1466 1467 1467 1467 1467 1467 1467 1468 1468 1469 1469 1469 1470
1498 1498 1506 1507 1499 1488 1480 1481 1475 1468 1467 1468 1470 1472 1472 1473 1472 1472 1472 1470 1469 1468 1467 1466 1466 1466 1465 1465 1465 1464 1464 1464 1464 1464 1464 1463 1463 1464 1464 1464 1464 1464 1464 1464 1465 1465 1465 1466 1466
1497 1498 1496 1501 1498 1496 1483 1474 1471 1468 1468 1469 1469 1471 1471 1471 1471 1470 1470 1468 1467 1466 1464 1464 1463 1463 1462 1461 1461 1461 1461 1461 1461 1461 1460 1460 1460 1460 1461 1461 1460 1460 1460 1461 1461 1461 1461 1462 1463
1497 1496 1500 1502 1501 1495 1479 1474 1475 1472 1470 1469 1469 1470 1470 1470 1469 1468 1468 1467 1465 1464 1463 1462 1461 1460 1459 1458 1458 1457 1457 1457 1457 1457 1457 1456 1456 1457 1457 1457 1457 1457 1457 1457 1457 1458 1458 1458 1459
1498 1499 1497 1498 1495 1496 1489 1481 1469 1469 1469 1469 1469 1469 1469 1468 1468 1467 1466 1465 1464 1462 1461 1459 1458 1457 1455 1454 1454 1453 1453 1453 1453 1453 1453 1453 1453 1453 1453 1453 1453 1453 1453 1453 1454 1454 1455 1455 1456
1492 1493 1496 1501 1497 1492 1491 1485 1468 1467 1467 1468 1468 1468 1468 1467 1466 1465 1464 1462 1461 1459 1458 1456 1455 1454 1452 1451 1450 1450 1450 1450 1450 1449 1449 1449 1449 1449 1450 1450 1450 1450 1450 1450 1450 1450 1451 1451 1452